This demonstration page uses our WeatherBlox Daily Observations layout. Learn more.

Left ArrowRight Arrow

34.02893, -84.19858

Hourly Observations for August 17, 2020

Temp ( °F °C ) Dew Point ( °F °C ) Humidity (%) Winds ( mph kmh ) Pressure ( in mb ) Visibility ( mi km ) Precip ( " mm )
12:53 am 00:53 Clear 72 22.2 71 21.7 97 97 Calm 29.92 1013 7 11 0.00 0.00
1:53 am 01:53 Clear 72 22.2 70 21.1 94 94 Calm 29.93 1013 8 13 0.00 0.00
2:53 am 02:53 Clear 71 21.7 70 21.1 96 96 Calm 29.92 1013 7 11 0.00 0.00
3:53 am 03:53 Clear 70 21.1 70 21.1 100 100 Calm 29.92 1013 8 13 0.00 0.00
4:53 am 04:53 Clear 70 21.1 70 21.1 100 100 Calm 29.93 1014 7 11 0.00 0.00
5:53 am 05:53 Clear 70 21.1 69 20.6 97 97 Calm 29.94 1014 7 11 0.00 0.00
6:53 am 06:53 Clear 70 21.1 69 20.6 97 97 Calm 29.96 1014 7 11 0.00 0.00
7:53 am 07:53 Sunny 73 22.8 71 21.7 94 94 Calm 29.96 1015 7 11 0.00 0.00
8:53 am 08:53 Mostly Cloudy 76 24.4 72 22.2 88 88 Calm 29.96 1015 8 13 0.00 0.00
9:53 am 09:53 Sunny 79 26.1 72 22.2 79 79 Calm 29.97 1015 9 14 0.00 0.00
10:53 am 10:53 Mostly Cloudy 82 27.8 72 22.2 72 72 VRB 3 6 29.98 1015 10 16 0.00 0.00
11:53 am 11:53 Cloudy 82 27.8 73 22.8 74 74 NW 5 7 29.98 1015 10 16 0.00 0.00
12:34 pm 12:34 Mostly Cloudy with Nearby Thunderstorms 82 27.8 73 22.8 74 74 SW 8 13 29.98 1015 10 16 0.00 0.00
12:53 pm 12:53 Mostly Cloudy with Nearby Thunderstorms 81 27.2 73 22.8 77 77 SSW 7 11 29.98 1015 10 16 0.00 0.00
1:53 pm 13:53 Partly Cloudy with Nearby Thunderstorms 86 30 73 22.8 65 65 WSW 7 11 29.96 1014 10 16 0.00 0.00
2:53 pm 14:53 Mostly Cloudy 86 30 72 22.2 63 63 NNW 3 6 29.94 1014 10 16 0.00 0.00
3:53 pm 15:53 Mostly Sunny 89 31.7 69 20.6 52 52 NW 12 19 29.91 1013 10 16 0.00 0.00
4:53 pm 16:53 Mostly Sunny 89 31.7 69 20.6 52 52 NW 9 15 29.91 1013 10 16 0.00 0.00
5:53 pm 17:53 Sunny 88 31.1 67 19.4 50 50 NW 9 15 29.90 1013 10 16 0.00 0.00
6:53 pm 18:53 Sunny 86 30 65 18.3 49 49 NW 9 15 29.89 1012 10 16 0.00 0.00
7:53 pm 19:53 Sunny 82 27.8 65 18.3 56 56 N 5 7 29.91 1013 10 16 0.00 0.00
8:53 pm 20:53 Clear 79 26.1 63 17.2 58 58 NNW 6 9 29.93 1014 10 16 0.00 0.00
9:53 pm 21:53 Clear 77 25 62 16.7 60 60 NNW 6 9 29.94 1014 10 16 0.00 0.00
10:53 pm 22:53 Clear 74 23.3 62 16.7 67 67 NNW 7 11 29.93 1014 10 16 0.00 0.00
11:53 pm 23:53 Clear 70 21.1 63 17.2 79 79 N 3 6 29.94 1014 10 16 0.00 0.00

Powered by AerisWeather